Starlink 5631

operational
NORAD ID: 55346 Int'l Des: 2023-013 Owner: SPXS Country: US Constellation: starlink
LEOCIRCULAR

关于 Starlink 5631

正在加载描述...

实时位置

正在加载3D地球...

即将过境

高度历史

Altitude vs Time

uPlot chart will show altitude changes over time

两行轨道根数

1 55346U 23013R 25304.02316782 -.00000821 00000-0 -45699-4 0 9995
2 55346 43.0052 284.9508 0001121 267.8194 92.2520 15.02534124152204
Epoch: Oct 31, 2025 • Age: 24 hours

当前状态

高度 558.5 km
速度 7.59 km/s
星下点 17.02°N, 111.01°W
发射日期 Jan 26, 2023
运行时间 2.7 years
类型 internet

技术详情

分类 Payload
质量 305.00 kg
干质量 290.00 kg
总质量 305.00 kg
长度 0.20 m
直径 2.80 m
跨度 9.00 m
形状 Box + pan
制造商 SPXS
平台类型 Starlink
阶段状态 In Orbit
所有者/国家 SPXS/US

大型星座

Loading constellations...